Fremont, MI

3:32 AM EST on November 23, 2017 (GMT -0500)
Fremont

Weather History for KFFX - November, 2012

Change the Weather History Date:

Sunday, November 11, 2012

  Actual Average (KMKG) Record (KMKG)
Temperature  
Mean Temperature 60 °F -  
Max Temperature 68 °F 44 °F 70 °F (1911)
Min Temperature 51 °F 32 °F 17 °F (1987)
Degree Days  
Heating Degree Days 6    
Growing Degree Days 10 (Base 50)    
Moisture  
Dew Point 47 °F    
Average Humidity 60    
Maximum Humidity 98    
Minimum Humidity 47    
Precipitation  
Precipitation 0.00 in - - ()
Sea Level Pressure  
Sea Level Pressure 29.88 in    
Wind  
Wind Speed 19 mph (South)    
Max Wind Speed 26 mph    
Max Gust Speed 37 mph    
Visibility 9 miles    
Events Rain    
Averages and records for this station are not official NWS values.
T = Trace of Precipitation, MM = Missing Value Source: NWS Daily Summary

Daily Weather History Graph

Daily Weather History Graph

Search for Another Location

Airport or City:

Trip Planner

Search our weather history database for the weather conditions in past years. The results will help you decide how hot, cold, wet, or windy it might be!

Date:

Astronomy

Nov. 11, 2012 Rise Set
Actual Time 7:32 AM EST 5:22 PM EST
Civil Twilight 7:02 AM EST 5:53 PM EST
Nautical Twilight 6:27 AM EST 6:27 PM EST
Astronomical Twilight 5:54 AM EST 7:01 PM EST
Moon 4:42 AM EST (11/11) 3:48 PM EST (11/11)
Length of Visible Light 10h 50m
Length of Day
9h 49m
Waning Crescent, 7% of the Moon is Illuminated
Nov 11
Waning Crescent
Nov 13
New
Nov 20
First Quarter
Nov 28
Full
Dec 6
Last Quarter

Hourly Weather History & Observations

Time (EST) Temp. Dew Point Humidity Pressure Visibility Wind Dir Wind Speed Gust Speed Precip Events Conditions
12:14 AM 62.6 °F 44.6 °F 52% 29.91 in 10.0 mi South 21.9 mph 32.2 mph N/A   Clear
12:34 AM 62.6 °F 44.6 °F 52% 29.91 in 10.0 mi South 23.0 mph 33.4 mph N/A   Clear
12:54 AM 62.6 °F 44.6 °F 52% 29.92 in 10.0 mi South 24.2 mph 36.8 mph N/A   Clear
1:14 AM 63.0 °F 44.6 °F 51% 29.92 in 10.0 mi South 23.0 mph 34.5 mph N/A   Clear
1:35 AM 62.8 °F 44.1 °F 50% 29.92 in 10.0 mi South 23.0 mph 33.4 mph N/A   Clear
1:54 AM 62.6 °F 43.7 °F 50% 29.92 in 10.0 mi South 24.2 mph 29.9 mph N/A   Clear
2:15 AM 62.6 °F 43.9 °F 50% 29.92 in 10.0 mi South 21.9 mph 35.7 mph N/A   Clear
2:34 AM 62.2 °F 44.2 °F 52% 29.92 in 10.0 mi South 24.2 mph 27.6 mph N/A   Clear
2:54 AM 62.6 °F 44.1 °F 51% 29.93 in 10.0 mi South 24.2 mph 31.1 mph N/A   Clear
3:15 AM 62.6 °F 43.7 °F 50% 29.94 in 10.0 mi South 21.9 mph 28.8 mph N/A   Clear
3:34 AM 62.6 °F 43.7 °F 50% 29.94 in 10.0 mi South 26.5 mph 34.5 mph N/A   Scattered Clouds
3:55 AM 62.1 °F 42.8 °F 49% 29.94 in 10.0 mi South 19.6 mph 25.3 mph N/A   Clear
4:14 AM 61.9 °F 42.3 °F 49% 29.94 in 10.0 mi South 23.0 mph 28.8 mph N/A   Clear
4:34 AM 61.7 °F 42.1 °F 49% 29.95 in 10.0 mi South 21.9 mph 28.8 mph N/A   Scattered Clouds
4:55 AM 61.7 °F 42.4 °F 49% 29.97 in 10.0 mi South 17.3 mph 31.1 mph N/A   Scattered Clouds
5:14 AM 61.5 °F 42.8 °F 50% 29.96 in 10.0 mi South 21.9 mph 32.2 mph N/A   Scattered Clouds
5:34 AM 61.0 °F 43.0 °F 52% 29.97 in 10.0 mi South 17.3 mph 27.6 mph N/A   Scattered Clouds
6:34 AM 60.1 °F 43.3 °F 54% 29.96 in 10.0 mi South 18.4 mph 27.6 mph N/A   Scattered Clouds
6:55 AM 59.7 °F 43.7 °F 55% 29.96 in 10.0 mi South 20.7 mph 27.6 mph N/A   Scattered Clouds
7:14 AM 59.2 °F 43.9 °F 57% 29.96 in 10.0 mi South 15.0 mph 21.9 mph N/A   Scattered Clouds
7:34 AM 59.9 °F 44.2 °F 56% 29.95 in 10.0 mi South 18.4 mph 24.2 mph N/A   Clear
7:54 AM 59.9 °F 44.6 °F 57% 29.95 in 10.0 mi South 18.4 mph 28.8 mph N/A   Clear
8:34 AM 60.6 °F 45.0 °F 56% 29.95 in 10.0 mi South 16.1 mph 23.0 mph N/A   Clear
8:54 AM 61.0 °F 44.8 °F 55% 29.95 in 10.0 mi SSE 13.8 mph 20.7 mph N/A   Clear
9:14 AM 60.8 °F 44.8 °F 56% 29.94 in 10.0 mi SSE 10.4 mph 21.9 mph N/A   Clear
9:34 AM 61.3 °F 45.0 °F 55% 29.94 in 10.0 mi SSE 16.1 mph 25.3 mph N/A   Scattered Clouds
9:54 AM 61.5 °F 45.5 °F 56% 29.94 in 10.0 mi South 15.0 mph 20.7 mph N/A   Mostly Cloudy
10:14 AM 61.9 °F 45.9 °F 56% 29.93 in 10.0 mi SSE 11.5 mph 19.6 mph N/A   Overcast
10:35 AM 63.0 °F 46.6 °F 55% 29.92 in 10.0 mi SSE 12.7 mph 20.7 mph N/A   Overcast
10:54 AM 65.3 °F 47.5 °F 52% 29.92 in 10.0 mi South 13.8 mph 19.6 mph N/A   Overcast
11:14 AM 66.9 °F 48.0 °F 51% 29.91 in 10.0 mi South 13.8 mph 23.0 mph N/A   Overcast
11:35 AM 65.5 °F 47.3 °F 52% 29.91 in 10.0 mi SSE 12.7 mph 20.7 mph N/A   Overcast
11:54 AM 65.3 °F 47.3 °F 52% 29.89 in 10.0 mi SSE 12.7 mph 24.2 mph N/A   Mostly Cloudy
12:14 PM 65.3 °F 47.3 °F 52% 29.88 in 10.0 mi SSE 12.7 mph 27.6 mph N/A   Overcast
12:35 PM 67.5 °F 48.4 °F 50% 29.87 in 10.0 mi SSE 15.0 mph 26.5 mph N/A   Mostly Cloudy
1:14 PM 68.4 °F 49.1 °F 50% 29.85 in 10.0 mi SSE 18.4 mph 25.3 mph N/A   Mostly Cloudy
1:34 PM 68.2 °F 48.9 °F 50% 29.85 in 10.0 mi SSE 18.4 mph 28.8 mph N/A   Mostly Cloudy
1:55 PM 67.8 °F 49.1 °F 51% 29.84 in 10.0 mi SSE 15.0 mph 28.8 mph N/A   Overcast
2:14 PM 68.0 °F 49.1 °F 51% 29.83 in 10.0 mi SSE 11.5 mph 25.3 mph N/A   Overcast
2:34 PM 68.0 °F 48.6 °F 50% 29.82 in 10.0 mi SSE 17.3 mph 33.4 mph N/A   Overcast
2:55 PM 67.6 °F 48.0 °F 49% 29.82 in 10.0 mi SSE 16.1 mph 25.3 mph N/A   Overcast
3:14 PM 67.3 °F 47.8 °F 50% 29.80 in 10.0 mi SSE 13.8 mph 31.1 mph N/A   Overcast
3:34 PM 67.3 °F 47.3 °F 49% 29.80 in 10.0 mi SSE 15.0 mph 24.2 mph N/A   Overcast
3:54 PM 67.1 °F 47.1 °F 49% 29.80 in 10.0 mi SSE 19.6 mph 26.5 mph N/A   Overcast
4:14 PM 67.1 °F 46.9 °F 48% 29.79 in 10.0 mi SSE 11.5 mph 25.3 mph N/A   Overcast
4:35 PM 67.3 °F 46.8 °F 48% 29.78 in 10.0 mi SSE 17.3 mph 28.8 mph N/A   Overcast
4:54 PM 67.3 °F 46.6 °F 47% 29.79 in 10.0 mi SSE 13.8 mph 28.8 mph N/A   Overcast
5:14 PM 67.1 °F 46.8 °F 48% 29.79 in 10.0 mi SSE 11.5 mph 25.3 mph N/A   Overcast
5:34 PM 66.7 °F 46.9 °F 49% 29.80 in 10.0 mi SSE 16.1 mph 25.3 mph N/A   Overcast
5:54 PM 66.6 °F 46.9 °F 49% 29.79 in 10.0 mi SSE 12.7 mph 28.8 mph N/A   Overcast
6:14 PM 66.6 °F 46.6 °F 49% 29.79 in 10.0 mi SSE 16.1 mph 27.6 mph N/A   Overcast
6:34 PM 66.4 °F 46.4 °F 49% 29.79 in 10.0 mi SSE 16.1 mph 25.3 mph N/A   Overcast
6:54 PM 66.2 °F 46.4 °F 49% 29.78 in 10.0 mi SSE 18.4 mph 32.2 mph N/A   Overcast
7:14 PM 65.3 °F 46.9 °F 51% 29.79 in 10.0 mi South 23.0 mph 34.5 mph N/A   Overcast
7:35 PM 60.4 °F 51.8 °F 73% 29.81 in 10.0 mi SSE 25.3 mph 35.7 mph N/A Rain Light Rain
7:54 PM 57.4 °F 54.1 °F 89% 29.83 in 5.0 mi South 19.6 mph 32.2 mph N/A Rain Light Rain
8:14 PM 56.8 °F 54.5 °F 92% 29.83 in 10.0 mi SSE 13.8 mph 18.4 mph N/A   Drizzle
8:34 PM 57.2 °F 53.8 °F 88% 29.82 in 10.0 mi SSE 15.0 mph 25.3 mph N/A   Overcast
8:54 PM 57.2 °F 53.4 °F 87% 29.83 in 10.0 mi SSE 13.8 mph 23.0 mph N/A   Overcast
9:15 PM 56.5 °F 53.2 °F 89% 29.83 in 7.0 mi South 18.4 mph 27.6 mph N/A   Drizzle
9:34 PM 55.9 °F 53.6 °F 92% 29.83 in 5.0 mi South 20.7 mph 32.2 mph N/A   Drizzle
9:54 PM 55.0 °F 53.1 °F 93% 29.83 in 5.0 mi South 23.0 mph 34.5 mph N/A Rain Light Rain
10:14 PM 54.0 °F 52.7 °F 95% 29.83 in 7.0 mi South 15.0 mph 23.0 mph N/A Rain Rain
10:34 PM 52.7 °F 51.8 °F 97% 29.83 in 5.0 mi SSW 6.9 mph - N/A   Drizzle
10:55 PM 52.0 °F 51.1 °F 97% 29.84 in 7.0 mi SSW 10.4 mph - N/A Rain Light Rain
11:14 PM 51.8 °F 50.9 °F 97% 29.84 in 7.0 mi South 6.9 mph - N/A Rain Rain
11:34 PM 51.3 °F 50.7 °F 98% 29.84 in 7.0 mi South 8.1 mph - N/A Rain Rain
11:54 PM 51.1 °F 50.5 °F 98% 29.84 in 4.0 mi South 6.9 mph - N/A   Heavy Drizzle